QPF
0.02 0.01 0.01 0.01 0.02 0.02 0.02 0.02 0.02 0.02 0.01 0.01 0.01 0.00 0.00 0.00 0.00 0.00 0.00 0.00 0.00 0.00 0.00 0.00 0.00 0.00 0.00 0.01 0.01 0.02 0.02 0.02 0.03 0.02 0.01 0.01 0.01 0.01 0.01 0.00 0.00 0.00 0.00 0.01
0.03 0.01 0.01 0.01 0.01 0.01 0.02 0.03 0.03 0.03 0.02 0.01 0.01 0.01 0.00 0.00 0.00 0.00 0.00 0.00 0.00 0.00 0.00 0.00 0.00 0.00 0.00 0.00 0.01 0.02 0.02 0.02 0.03 0.03 0.02 0.01 0.01 0.01 0.01 0.01 0.00 0.00 0.00 0.00
0.02 0.01 0.01 0.01 0.01 0.02 0.02 0.03 0.04 0.03 0.02 0.02 0.02 0.02 0.01 0.00 0.00 0.00 0.00 0.00 0.00 0.00 0.00 0.00 0.00 0.00 0.00 0.00 0.00 0.00 0.00 0.00 0.01 0.01 0.01 0.01 0.01 0.01 0.01 0.01 0.01 0.00 0.00 0.00
0.02 0.01 0.01 0.01 0.01 0.03 0.04 0.03 0.03 0.04 0.04 0.04 0.03 0.04 0.02 0.00 0.00 0.00 0.00 0.00 0.00 0.00 0.00 0.00 0.00 0.00 0.00 0.00 0.00 0.00 0.00 0.00 0.00 0.00 0.01 0.01 0.01 0.01 0.01 0.01 0.01 0.01 0.00 0.00
0.03 0.02 0.02 0.03 0.02 0.02 0.03 0.03 0.03 0.03 0.04 0.04 0.03 0.02 0.01 0.01 0.01 0.00 0.00 0.00 0.00 0.00 0.00 0.00 0.00 0.00 0.00 0.00 0.00 0.00 0.00 0.00 0.00 0.00 0.00 0.00 0.01 0.00 0.00 0.01 0.01 0.01 0.01 0.01
0.03 0.02 0.01 0.01 0.02 0.02 0.02 0.03 0.03 0.03 0.03 0.03 0.02 0.01 0.01 0.01 0.01 0.01 0.01 0.00 0.00 0.00 0.00 0.00 0.00 0.00 0.00 0.00 0.00 0.00 0.00 0.01 0.01 0.01 0.01 0.01 0.00 0.00 0.00 0.01 0.02 0.02 0.02 0.01
0.02 0.02 0.01 0.01 0.02 0.03 0.02 0.04 0.05 0.05 0.04 0.03 0.02 0.01 0.00 0.00 0.00 0.01 0.02 0.01 0.00 0.00 0.00 0.00 0.00 0.00 0.00 0.00 0.00 0.01 0.01 0.01 0.01 0.01 0.01 0.01 0.01 0.01 0.00 0.01 0.01 0.02 0.02 0.01
0.01 0.02 0.01 0.01 0.02 0.03 0.02 0.03 0.05 0.05 0.04 0.02 0.01 0.01 0.00 0.00 0.00 0.00 0.00 0.00 0.00 0.00 0.00 0.00 0.00 0.00 0.00 0.00 0.00 0.01 0.00 0.00 0.00 0.00 0.01 0.00 0.00 0.00 0.00 0.00 0.01 0.01 0.01 0.01
0.01 0.01 0.01 0.01 0.01 0.01 0.01 0.01 0.02 0.02 0.02 0.03 0.02 0.01 0.01 0.00 0.00 0.00 0.00 0.00 0.00 0.01 0.00 0.00 0.00 0.00 0.00 0.00 0.00 0.00 0.00 0.00 0.00 0.00 0.00 0.00 0.00 0.00 0.01 0.00 0.00 0.01 0.01 0.01
0.00 0.00 0.01 0.01 0.02 0.01 0.01 0.01 0.01 0.02 0.02 0.02 0.02 0.02 0.02 0.01 0.00 0.00 0.01 0.01 0.01 0.01 0.00 0.00 0.00 0.00 0.00 0.00 0.00 0.00 0.00 0.00 0.00 0.00 0.00 0.00 0.00 0.00 0.00 0.01 0.01 0.01 0.01 0.01
0.00 0.00 0.01 0.01 0.01 0.01 0.02 0.01 0.02 0.02 0.01 0.02 0.02 0.02 0.01 0.01 0.00 0.01 0.01 0.01 0.01 0.01 0.01 0.00 0.00 0.00 0.01 0.01 0.01 0.00 0.00 0.00 0.00 0.00 0.00 0.00 0.00 0.00 0.00 0.01 0.01 0.01 0.01 0.01
0.00 0.00 0.01 0.01 0.02 0.01 0.01 0.01 0.01 0.03 0.03 0.02 0.02 0.01 0.01 0.01 0.00 0.00 0.00 0.00 0.00 0.00 0.00 0.00 0.00 0.01 0.01 0.01 0.01 0.00 0.00 0.00 0.00 0.00 0.00 0.00 0.00 0.00 0.00 0.00 0.01 0.01 0.01 0.01
0.00 0.01 0.01 0.02 0.03 0.01 0.01 0.01 0.01 0.01 0.03 0.03 0.03 0.02 0.01 0.01 0.00 0.00 0.00 0.00 0.00 0.00 0.00 0.01 0.01 0.01 0.01 0.01 0.01 0.01 0.00 0.00 0.00 0.00 0.00 0.00 0.00 0.00 0.00 0.01 0.01 0.01 0.01 0.01
0.00 0.00 0.01 0.01 0.02 0.01 0.01 0.00 0.01 0.01 0.03 0.02 0.02 0.02 0.02 0.01 0.01 0.00 0.00 0.00 0.00 0.00 0.00 0.00 0.00 0.00 0.00 0.00 0.01 0.01 0.01 0.00 0.00 0.00 0.00 0.00 0.00 0.00 0.01 0.01 0.01 0.01 0.01 0.01
0.00 0.00 0.00 0.00 0.01 0.01 0.01 0.00 0.00 0.00 0.01 0.01 0.02 0.02 0.02 0.02 0.01 0.00 0.00 0.00 0.00 0.00 0.00 0.00 0.00 0.01 0.01 0.00 0.00 0.01 0.01 0.01 0.00 0.00 0.00 0.00 0.00 0.00 0.00 0.01 0.01 0.01 0.01 0.02
0.00 0.00 0.00 0.00 0.00 0.00 0.00 0.00 0.00 0.00 0.00 0.00 0.01 0.01 0.01 0.01 0.01 0.00 0.00 0.00 0.00 0.00 0.00 0.00 0.01 0.01 0.02 0.02 0.02 0.01 0.01 0.01 0.01 0.00 0.00 0.00 0.00 0.01 0.00 0.01 0.01 0.02 0.02 0.01
0.00 0.00 0.01 0.00 0.00 0.00 0.00 0.00 0.00 0.00 0.00 0.00 0.00 0.00 0.00 0.00 0.00 0.00 0.00 0.00 0.00 0.00 0.00 0.00 0.01 0.01 0.01 0.01 0.02 0.02 0.01 0.01 0.01 0.00 0.00 0.01 0.01 0.02 0.01 0.01 0.01 0.02 0.02 0.02
0.00 0.00 0.01 0.01 0.00 0.00 0.00 0.00 0.00 0.00 0.00 0.00 0.00 0.00 0.00 0.00 0.00 0.01 0.01 0.00 0.00 0.00 0.00 0.00 0.00 0.00 0.01 0.01 0.02 0.02 0.01 0.01 0.01 0.00 0.01 0.01 0.01 0.01 0.01 0.01 0.02 0.02 0.02 0.03
0.00 0.00 0.01 0.01 0.01 0.00 0.00 0.00 0.00 0.00 0.00 0.00 0.00 0.00 0.00 0.00 0.00 0.01 0.01 0.00 0.00 0.00 0.00 0.00 0.00 0.00 0.01 0.01 0.02 0.02 0.02 0.02 0.01 0.01 0.01 0.01 0.01 0.01 0.01 0.01 0.02 0.03 0.02 0.02
0.00 0.00 0.00 0.01 0.01 0.01 0.00 0.00 0.00 0.00 0.00 0.00 0.00 0.00 0.00 0.01 0.01 0.01 0.00 0.00 0.00 0.00 0.00 0.00 0.00 0.00 0.00 0.01 0.02 0.02 0.02 0.02 0.02 0.02 0.01 0.02 0.01 0.01 0.01 0.01 0.02 0.03 0.03 0.02
0.00 0.00 0.00 0.01 0.01 0.01 0.00 0.00 0.00 0.01 0.00 0.00 0.00 0.00 0.00 0.01 0.01 0.01 0.01 0.00 0.00 0.00 0.00 0.00 0.00 0.00 0.01 0.01 0.01 0.02 0.02 0.02 0.02 0.02 0.02 0.02 0.02 0.01 0.01 0.02 0.02 0.03 0.04 0.05
0.00 0.00 0.01 0.01 0.02 0.02 0.01 0.00 0.00 0.01 0.00 0.00 0.00 0.00 0.00 0.00 0.01 0.01 0.01 0.01 0.00 0.00 0.00 0.00 0.01 0.01 0.01 0.01 0.01 0.02 0.02 0.03 0.03 0.03 0.02 0.02 0.02 0.01 0.01 0.02 0.02 0.02 0.03 0.04
0.01 0.01 0.00 0.01 0.01 0.01 0.01 0.01 0.00 0.00 0.00 0.00 0.00 0.00 0.00 0.00 0.01 0.01 0.01 0.01 0.01 0.00 0.01 0.01 0.01 0.01 0.01 0.01 0.01 0.01 0.03 0.05 0.05 0.04 0.02 0.02 0.02 0.02 0.01 0.02 0.02 0.01 0.02 0.03
0.01 0.01 0.00 0.01 0.01 0.00 0.00 0.00 0.00 0.00 0.00 0.00 0.00 0.00 0.00 0.00 0.00 0.01 0.00 0.00 0.00 0.00 0.01 0.00 0.00 0.01 0.01 0.02 0.02 0.02 0.03 0.04 0.05 0.05 0.03 0.02 0.02 0.02 0.01 0.01 0.01 0.01 0.02 0.04
0.01 0.01 0.01 0.01 0.01 0.00 0.00 0.00 0.00 0.00 0.00 0.00 0.00 0.00 0.00 0.00 0.00 0.00 0.00 0.00 0.00 0.00 0.01 0.01 0.00 0.00 0.01 0.01 0.01 0.01 0.02 0.02 0.03 0.03 0.03 0.03 0.03 0.03 0.03 0.02 0.02 0.01 0.02 0.03
0.00 0.00 0.01 0.01 0.01 0.01 0.00 0.00 0.00 0.00 0.00 0.00 0.00 0.00 0.00 0.00 0.00 0.00 0.00 0.00 0.00 0.00 0.01 0.01 0.01 0.01 0.01 0.01 0.01 0.01 0.02 0.02 0.02 0.03 0.03 0.03 0.03 0.04 0.04 0.04 0.03 0.02 0.02 0.02
MSLP
1010.16 1010.73 1011.16 1011.47 1011.65 1011.74 1011.75 1011.72 1011.63 1011.48 1011.26 1010.94 1010.53 1010.05 1009.52 1009.02 1008.60 1008.32 1008.21 1008.29 1008.55 1008.93 1009.37 1009.83 1010.22 1010.53 1010.73 1010.84 1010.88 1010.90 1010.92 1010.99 1011.09 1011.23 1011.40 1011.55 1011.67 1011.75 1011.78 1011.77 1011.74 1011.72 1011.74 1011.81
1010.80 1011.21 1011.48 1011.62 1011.69 1011.70 1011.70 1011.69 1011.67 1011.60 1011.44 1011.16 1010.74 1010.21 1009.59 1008.97 1008.44 1008.07 1007.91 1007.98 1008.28 1008.75 1009.32 1009.89 1010.38 1010.76 1010.99 1011.10 1011.11 1011.08 1011.06 1011.09 1011.20 1011.36 1011.55 1011.74 1011.89 1011.98 1012.00 1011.96 1011.89 1011.83 1011.81 1011.86
1011.24 1011.48 1011.58 1011.59 1011.55 1011.52 1011.53 1011.59 1011.65 1011.68 1011.61 1011.38 1010.97 1010.38 1009.68 1008.96 1008.31 1007.84 1007.62 1007.69 1008.03 1008.58 1009.24 1009.92 1010.51 1010.95 1011.21 1011.31 1011.30 1011.23 1011.18 1011.20 1011.30 1011.48 1011.70 1011.93 1012.11 1012.21 1012.21 1012.14 1012.03 1011.92 1011.87 1011.89
1011.46 1011.53 1011.48 1011.37 1011.27 1011.23 1011.30 1011.45 1011.65 1011.80 1011.82 1011.65 1011.25 1010.63 1009.84 1009.01 1008.24 1007.68 1007.40 1007.45 1007.80 1008.41 1009.15 1009.91 1010.57 1011.07 1011.36 1011.47 1011.44 1011.35 1011.29 1011.29 1011.41 1011.61 1011.86 1012.12 1012.32 1012.42 1012.41 1012.31 1012.15 1011.99 1011.89 1011.89
1011.45 1011.37 1011.21 1011.02 1010.91 1010.92 1011.08 1011.36 1011.70 1011.99 1012.13 1012.02 1011.63 1010.97 1010.10 1009.16 1008.28 1007.61 1007.25 1007.25 1007.61 1008.24 1009.04 1009.86 1010.58 1011.12 1011.44 1011.56 1011.53 1011.44 1011.37 1011.38 1011.51 1011.73 1012.02 1012.30 1012.51 1012.61 1012.58 1012.44 1012.24 1012.03 1011.88 1011.83
1011.28 1011.09 1010.85 1010.65 1010.56 1010.65 1010.94 1011.37 1011.86 1012.30 1012.54 1012.50 1012.12 1011.41 1010.47 1009.41 1008.42 1007.64 1007.19 1007.13 1007.46 1008.09 1008.91 1009.77 1010.53 1011.11 1011.46 1011.60 1011.58 1011.49 1011.43 1011.45 1011.60 1011.84 1012.15 1012.45 1012.67 1012.77 1012.72 1012.55 1012.30 1012.04 1011.84 1011.75
1011.05 1010.80 1010.54 1010.35 1010.32 1010.52 1010.93 1011.51 1012.15 1012.70 1013.04 1013.04 1012.66 1011.92 1010.90 1009.74 1008.64 1007.75 1007.21 1007.08 1007.35 1007.96 1008.78 1009.65 1010.43 1011.03 1011.41 1011.57 1011.58 1011.51 1011.47 1011.51 1011.67 1011.93 1012.25 1012.56 1012.79 1012.89 1012.83 1012.63 1012.35 1012.06 1011.82 1011.68
1010.88 1010.61 1010.36 1010.21 1010.26 1010.55 1011.08 1011.77 1012.51 1013.15 1013.54 1013.57 1013.18 1012.40 1011.31 1010.08 1008.88 1007.90 1007.27 1007.06 1007.28 1007.84 1008.63 1009.49 1010.28 1010.91 1011.31 1011.50 1011.54 1011.50 1011.48 1011.54 1011.72 1012.00 1012.33 1012.64 1012.88 1012.97 1012.91 1012.71 1012.42 1012.11 1011.84 1011.68
1010.89 1010.63 1010.40 1010.30 1010.41 1010.76 1011.35 1012.10 1012.89 1013.55 1013.95 1013.97 1013.57 1012.75 1011.62 1010.33 1009.07 1008.02 1007.32 1007.05 1007.21 1007.72 1008.47 1009.31 1010.10 1010.73 1011.16 1011.39 1011.46 1011.46 1011.47 1011.56 1011.76 1012.04 1012.37 1012.70 1012.94 1013.04 1013.00 1012.82 1012.55 1012.25 1011.99 1011.81
1011.13 1010.90 1010.70 1010.63 1010.76 1011.12 1011.70 1012.43 1013.18 1013.80 1014.16 1014.14 1013.70 1012.85 1011.71 1010.40 1009.13 1008.06 1007.33 1007.02 1007.12 1007.59 1008.29 1009.10 1009.88 1010.51 1010.96 1011.23 1011.35 1011.39 1011.45 1011.57 1011.78 1012.07 1012.41 1012.74 1012.99 1013.12 1013.12 1012.98 1012.76 1012.50 1012.28 1012.12
1011.64 1011.43 1011.24 1011.16 1011.25 1011.55 1012.04 1012.66 1013.30 1013.81 1014.07 1013.98 1013.50 1012.66 1011.53 1010.26 1009.03 1007.99 1007.27 1006.95 1007.03 1007.44 1008.10 1008.86 1009.61 1010.24 1010.71 1011.01 1011.18 1011.28 1011.39 1011.55 1011.79 1012.10 1012.45 1012.80 1013.07 1013.24 1013.28 1013.21 1013.07 1012.89 1012.72 1012.61
1012.34 1012.14 1011.94 1011.81 1011.81 1011.98 1012.31 1012.75 1013.20 1013.54 1013.67 1013.50 1013.00 1012.17 1011.11 1009.93 1008.79 1007.84 1007.17 1006.87 1006.93 1007.30 1007.90 1008.60 1009.30 1009.91 1010.38 1010.72 1010.94 1011.11 1011.28 1011.49 1011.78 1012.12 1012.50 1012.87 1013.18 1013.39 1013.50 1013.51 1013.46 1013.38 1013.30 1013.27
1013.13 1012.93 1012.70 1012.48 1012.36 1012.35 1012.47 1012.67 1012.89 1013.04 1013.03 1012.77 1012.26 1011.49 1010.54 1009.50 1008.50 1007.67 1007.09 1006.82 1006.87 1007.19 1007.70 1008.32 1008.95 1009.51 1009.98 1010.33 1010.61 1010.85 1011.09 1011.38 1011.73 1012.13 1012.55 1012.95 1013.31 1013.58 1013.75 1013.85 1013.90 1013.92 1013.95 1013.99
1013.92 1013.70 1013.41 1013.10 1012.83 1012.62 1012.51 1012.47 1012.45 1012.41 1012.26 1011.95 1011.45 1010.77 1009.97 1009.10 1008.28 1007.59 1007.11 1006.88 1006.90 1007.14 1007.55 1008.05 1008.57 1009.05 1009.47 1009.84 1010.16 1010.47 1010.81 1011.19 1011.63 1012.10 1012.58 1013.04 1013.44 1013.77 1014.01 1014.19 1014.33 1014.45 1014.57 1014.71
1014.58 1014.35 1014.01 1013.61 1013.19 1012.81 1012.48 1012.22 1012.00 1011.79 1011.53 1011.20 1010.75 1010.20 1009.56 1008.89 1008.26 1007.72 1007.32 1007.11 1007.07 1007.20 1007.46 1007.79 1008.15 1008.52 1008.88 1009.23 1009.59 1009.97 1010.41 1010.90 1011.44 1012.01 1012.57 1013.09 1013.56 1013.94 1014.24 1014.49 1014.70 1014.90 1015.10 1015.32
1015.06 1014.82 1014.45 1013.99 1013.48 1012.96 1012.47 1012.04 1011.67 1011.34 1011.03 1010.70 1010.34 1009.92 1009.47 1008.99 1008.53 1008.12 1007.78 1007.55 1007.42 1007.39 1007.45 1007.57 1007.74 1007.95 1008.21 1008.52 1008.89 1009.35 1009.89 1010.50 1011.16 1011.84 1012.50 1013.10 1013.63 1014.06 1014.42 1014.71 1014.97 1015.22 1015.49 1015.77
1015.35 1015.12 1014.76 1014.28 1013.72 1013.13 1012.55 1012.02 1011.56 1011.18 1010.86 1010.58 1010.32 1010.05 1009.77 1009.46 1009.14 1008.81 1008.50 1008.20 1007.93 1007.70 1007.52 1007.40 1007.34 1007.36 1007.48 1007.73 1008.11 1008.62 1009.26 1010.00 1010.79 1011.59 1012.36 1013.05 1013.64 1014.13 1014.52 1014.85 1015.14 1015.42 1015.72 1016.04
1015.48 1015.30 1014.97 1014.52 1013.98 1013.38 1012.79 1012.24 1011.76 1011.38 1011.09 1010.88 1010.72 1010.58 1010.44 1010.26 1010.04 1009.75 1009.41 1009.01 1008.57 1008.12 1007.68 1007.28 1006.97 1006.79 1006.77 1006.93 1007.30 1007.85 1008.58 1009.43 1010.35 1011.28 1012.15 1012.94 1013.60 1014.13 1014.56 1014.91 1015.21 1015.51 1015.82 1016.16
1015.55 1015.42 1015.16 1014.78 1014.30 1013.76 1013.21 1012.69 1012.25 1011.91 1011.68 1011.53 1011.46 1011.42 1011.38 1011.28 1011.10 1010.82 1010.41 1009.88 1009.26 1008.58 1007.88 1007.23 1006.68 1006.29 1006.12 1006.20 1006.53 1007.12 1007.92 1008.86 1009.89 1010.93 1011.91 1012.78 1013.51 1014.09 1014.55 1014.92 1015.24 1015.54 1015.87 1016.22
1015.64 1015.57 1015.39 1015.10 1014.71 1014.26 1013.79 1013.34 1012.96 1012.67 1012.49 1012.40 1012.38 1012.40 1012.41 1012.34 1012.16 1011.84 1011.35 1010.69 1009.90 1009.02 1008.10 1007.22 1006.47 1005.91 1005.61 1005.60 1005.91 1006.50 1007.34 1008.36 1009.47 1010.59 1011.66 1012.60 1013.40 1014.03 1014.53 1014.92 1015.26 1015.58 1015.92 1016.28
1015.82 1015.79 1015.68 1015.48 1015.19 1014.84 1014.45 1014.08 1013.76 1013.51 1013.36 1013.30 1013.30 1013.33 1013.33 1013.25 1013.04 1012.66 1012.09 1011.33 1010.41 1009.37 1008.30 1007.26 1006.37 1005.68 1005.29 1005.21 1005.48 1006.06 1006.92 1007.97 1009.13 1010.31 1011.43 1012.43 1013.28 1013.97 1014.51 1014.95 1015.32 1015.67 1016.04 1016.43
1016.11 1016.11 1016.05 1015.92 1015.71 1015.43 1015.12 1014.80 1014.52 1014.29 1014.14 1014.06 1014.04 1014.03 1013.99 1013.86 1013.60 1013.17 1012.54 1011.71 1010.72 1009.61 1008.45 1007.35 1006.38 1005.63 1005.18 1005.06 1005.29 1005.85 1006.70 1007.75 1008.92 1010.11 1011.26 1012.29 1013.18 1013.92 1014.52 1015.01 1015.44 1015.84 1016.25 1016.68
1016.48 1016.49 1016.45 1016.35 1016.18 1015.96 1015.69 1015.40 1015.13 1014.89 1014.71 1014.58 1014.49 1014.41 1014.30 1014.12 1013.80 1013.32 1012.66 1011.82 1010.82 1009.71 1008.56 1007.46 1006.50 1005.75 1005.29 1005.15 1005.36 1005.89 1006.69 1007.71 1008.84 1010.01 1011.15 1012.19 1013.10 1013.88 1014.54 1015.10 1015.60 1016.07 1016.55 1017.03
1016.88 1016.86 1016.81 1016.71 1016.56 1016.36 1016.10 1015.82 1015.53 1015.26 1015.02 1014.82 1014.64 1014.47 1014.27 1014.01 1013.65 1013.14 1012.48 1011.67 1010.72 1009.68 1008.62 1007.59 1006.70 1006.01 1005.58 1005.45 1005.63 1006.12 1006.87 1007.81 1008.88 1009.99 1011.08 1012.11 1013.03 1013.85 1014.56 1015.19 1015.77 1016.33 1016.89 1017.44
1017.21 1017.13 1017.06 1016.95 1016.79 1016.58 1016.33 1016.03 1015.72 1015.40 1015.09 1014.80 1014.53 1014.26 1013.98 1013.65 1013.24 1012.72 1012.09 1011.34 1010.48 1009.56 1008.62 1007.72 1006.94 1006.34 1005.97 1005.87 1006.04 1006.48 1007.16 1008.01 1008.99 1010.02 1011.05 1012.04 1012.95 1013.79 1014.55 1015.25 1015.92 1016.57 1017.20 1017.83
1017.36 1017.24 1017.13 1017.00 1016.83 1016.62 1016.36 1016.06 1015.72 1015.36 1014.99 1014.62 1014.27 1013.91 1013.54 1013.14 1012.70 1012.18 1011.59 1010.91 1010.16 1009.36 1008.57 1007.81 1007.17 1006.68 1006.38 1006.31 1006.48 1006.87 1007.48 1008.24 1009.12 1010.06 1011.01 1011.95 1012.85 1013.69 1014.49 1015.25 1015.99 1016.72 1017.42 1018.11
Thickness
5772 5759 5750 5757 5763 5762 5758 5753 5750 5756 5767 5760 5753 5754 5762 5767 5765 5763 5763 5763 5762 5762 5765 5765 5762 5760 5757 5754 5751 5748 5744 5741 5737 5733 5729 5725 5722 5722 5721 5720 5718 5717 5715 5713
5755 5750 5761 5769 5768 5762 5756 5749 5749 5756 5765 5759 5752 5754 5764 5766 5765 5765 5765 5764 5763 5761 5761 5760 5759 5757 5753 5750 5749 5746 5743 5739 5736 5732 5729 5726 5722 5721 5719 5718 5716 5715 5713 5711
5747 5756 5769 5764 5758 5754 5753 5749 5747 5747 5755 5758 5750 5745 5755 5765 5769 5768 5769 5768 5767 5763 5759 5757 5756 5753 5750 5747 5746 5745 5742 5738 5734 5731 5728 5724 5720 5717 5714 5712 5712 5712 5710 5708
5753 5764 5762 5756 5754 5753 5743 5755 5753 5748 5739 5734 5743 5723 5744 5757 5758 5761 5762 5763 5763 5763 5760 5757 5754 5750 5748 5746 5745 5744 5741 5737 5733 5730 5725 5719 5713 5710 5710 5710 5709 5709 5708 5706
5749 5758 5754 5749 5753 5755 5748 5757 5753 5748 5739 5733 5741 5730 5739 5755 5749 5754 5760 5761 5761 5761 5759 5754 5752 5748 5747 5745 5742 5740 5738 5734 5731 5727 5723 5718 5714 5712 5711 5710 5707 5705 5705 5704
5755 5764 5761 5757 5760 5759 5757 5751 5748 5745 5735 5718 5738 5734 5732 5749 5753 5756 5759 5761 5760 5759 5756 5753 5750 5746 5743 5741 5738 5735 5732 5729 5727 5724 5721 5717 5713 5710 5707 5705 5703 5701 5700 5700
5743 5753 5761 5761 5748 5752 5750 5733 5716 5714 5711 5720 5748 5740 5738 5758 5764 5761 5758 5759 5759 5757 5752 5748 5744 5741 5737 5734 5732 5730 5727 5723 5723 5720 5718 5715 5713 5710 5706 5703 5700 5697 5696 5694
5729 5732 5751 5755 5747 5740 5743 5736 5712 5702 5710 5725 5742 5734 5743 5764 5767 5766 5762 5760 5757 5753 5750 5745 5742 5738 5734 5731 5729 5726 5723 5720 5719 5717 5715 5714 5712 5708 5704 5702 5700 5696 5694 5693
5730 5730 5752 5755 5756 5747 5736 5736 5741 5724 5723 5718 5730 5737 5745 5760 5756 5756 5755 5753 5750 5749 5746 5742 5739 5736 5733 5729 5726 5724 5720 5717 5716 5714 5712 5710 5708 5704 5701 5700 5698 5695 5694 5692
5737 5725 5739 5748 5749 5748 5744 5739 5730 5718 5705 5702 5720 5728 5726 5737 5742 5745 5745 5744 5744 5745 5743 5740 5737 5734 5731 5727 5724 5722 5718 5715 5713 5711 5709 5707 5704 5702 5699 5696 5694 5692 5691 5689
5739 5725 5729 5735 5730 5729 5733 5730 5727 5722 5720 5704 5700 5713 5744 5741 5743 5741 5741 5742 5740 5740 5738 5736 5734 5732 5729 5725 5720 5718 5715 5712 5709 5707 5705 5702 5700 5698 5696 5693 5690 5689 5688 5686
5735 5724 5718 5729 5741 5743 5735 5729 5723 5706 5708 5716 5706 5713 5749 5746 5745 5742 5739 5739 5740 5737 5735 5733 5730 5727 5724 5720 5716 5714 5712 5709 5706 5704 5701 5698 5697 5694 5692 5689 5687 5685 5684 5682
5722 5714 5703 5708 5716 5726 5723 5726 5725 5720 5712 5706 5699 5707 5740 5740 5737 5737 5735 5735 5734 5732 5730 5727 5724 5721 5719 5715 5713 5710 5709 5706 5703 5700 5697 5694 5692 5689 5687 5685 5684 5682 5680 5678
5715 5708 5702 5694 5702 5711 5710 5715 5719 5712 5699 5700 5707 5711 5722 5725 5724 5725 5728 5729 5728 5726 5724 5721 5717 5715 5714 5712 5710 5708 5705 5703 5700 5696 5692 5689 5687 5685 5683 5681 5679 5677 5675 5672
5710 5700 5706 5711 5715 5714 5711 5710 5712 5708 5707 5701 5706 5709 5713 5717 5717 5719 5720 5721 5720 5718 5717 5715 5712 5711 5709 5708 5705 5704 5701 5699 5696 5691 5688 5685 5684 5682 5679 5676 5674 5672 5670 5668
5705 5696 5699 5699 5708 5709 5705 5709 5709 5708 5709 5706 5706 5704 5713 5716 5714 5711 5709 5709 5708 5708 5709 5709 5708 5707 5706 5704 5702 5700 5697 5694 5691 5686 5683 5682 5680 5677 5673 5671 5669 5666 5664 5662
5696 5691 5683 5683 5698 5696 5690 5705 5706 5704 5707 5703 5695 5697 5706 5701 5700 5698 5698 5698 5698 5699 5700 5701 5702 5702 5702 5702 5699 5695 5693 5690 5686 5682 5679 5677 5674 5670 5668 5666 5663 5660 5658 5657
5688 5684 5679 5676 5679 5665 5693 5710 5707 5700 5698 5699 5697 5697 5697 5695 5694 5693 5692 5690 5689 5691 5693 5693 5695 5696 5697 5697 5695 5692 5689 5684 5680 5677 5674 5671 5668 5665 5662 5660 5657 5655 5653 5651
5688 5677 5669 5667 5663 5674 5688 5696 5696 5687 5684 5692 5690 5689 5689 5691 5688 5682 5686 5684 5683 5684 5685 5686 5689 5690 5690 5690 5689 5686 5682 5679 5675 5671 5668 5665 5662 5659 5656 5653 5652 5650 5648 5646
5679 5675 5663 5660 5652 5655 5671 5687 5694 5684 5668 5682 5682 5678 5678 5677 5665 5665 5674 5675 5675 5677 5678 5679 5681 5683 5682 5682 5682 5679 5675 5672 5667 5665 5663 5660 5657 5654 5651 5649 5647 5645 5643 5641
5658 5657 5652 5649 5646 5659 5673 5681 5681 5656 5655 5672 5673 5671 5668 5663 5660 5662 5665 5664 5665 5667 5670 5672 5673 5673 5674 5675 5674 5670 5667 5664 5663 5661 5658 5655 5652 5649 5647 5645 5643 5640 5638 5635
5654 5649 5648 5648 5640 5646 5669 5669 5660 5657 5666 5666 5664 5662 5659 5657 5656 5656 5655 5654 5654 5657 5659 5662 5662 5663 5666 5667 5665 5662 5659 5660 5658 5655 5652 5649 5647 5645 5643 5640 5637 5635 5632 5629
5656 5654 5651 5649 5647 5657 5663 5661 5662 5662 5658 5657 5654 5653 5651 5648 5647 5646 5645 5645 5646 5647 5650 5652 5652 5653 5656 5657 5656 5653 5653 5653 5651 5647 5644 5643 5642 5640 5638 5635 5632 5629 5626 5624
5654 5658 5651 5646 5647 5652 5654 5654 5654 5653 5650 5649 5648 5645 5644 5640 5639 5637 5637 5637 5638 5639 5640 5642 5643 5643 5645 5647 5647 5646 5646 5645 5643 5640 5638 5637 5635 5634 5632 5630 5628 5624 5622 5619
5642 5644 5640 5637 5640 5642 5644 5644 5644 5643 5643 5641 5639 5638 5635 5632 5631 5630 5629 5629 5629 5630 5631 5632 5633 5633 5635 5637 5637 5638 5638 5637 5634 5633 5632 5631 5630 5628 5626 5624 5622 5620 5619 5617
5638 5634 5629 5627 5634 5631 5631 5636 5636 5633 5631 5630 5628 5626 5626 5624 5623 5622 5621 5621 5621 5622 5623 5623 5624 5625 5626 5628 5628 5629 5629 5627 5625 5624 5624 5623 5622 5621 5619 5617 5615 5614 5613 5612